Location: Cheyres
(46.8153°N, 6.7877°E)
Time: 12:37:15
(UTC+00:00)

Cosmos 990 Rocket - Pass Details

Date: 29 September 2021
Orbit: 746 x 769 km, 74.0° (Epoch: 24 October)

Event Time Altitude Azimuth Distance (km) Brightness Sun altitude
Rises 03:30:17 0° 347° (NNW) 3,241 7.3 -20.8°
Reaches altitude 10° 03:33:19 10° 4° (N) 2,314 6.8 -20.3°
Maximum altitude 03:37:07 20° 51° (NE) 1,733 6.7 -19.7°
Drops below altitude 10° 03:40:55 10° 97° (E) 2,311 7.5 -19.1°
Sets 03:43:55 0° 115° (ESE) 3,235 8.0 -18.6°
